Regional Weather Roundup
Issued by NWS Little Rock, AR

Home | Current Version | Previous Version | Graphics & Text | Print | Product List | Glossary On
Versions: 1 2 3 4 5 6 7 8 9 10 11 12 13 14 15 16 17 18 19 20 21 22 23 24 25 26 27 28 29 30 31 32 33 34 35 36 37 38 39 40 41 42 43 44 45 46 47 48 49 50
000
ASUS44 KLZK 061305
RWRLZK

WEATHER ROUNDUP FOR ARKANSAS
NATIONAL WEATHER SERVICE LITTLE ROCK AR
700 AM CST SAT FEB 06 2016

NOTE: "FAIR" INDICATES FEW OR NO CLOUDS BELOW 12,000 FEET WITH NO
SIGNIFICANT WEATHER AND/OR OBSTRUCTIONS TO VISIBILITY.

ARZ001-003-010-029-061400-
NORTHWEST ARKANSAS

CITY           SKY/WX    TMP DP  RH WIND       PRES   REMARKS
FAYETTEVILLE   CLEAR     23  21  92 CALM      30.31R
FORT SMITH     PTCLDY    31  23  72 NE6       30.33R WCI  25
HARRISON       PTCLDY    33  18  53 CALM      30.31R
BENTONVILLE    PTCLDY    30  18  59 CALM      30.31S
ROGERS         CLEAR     27  23  85 E3        30.31S
SILOAM SPGS    CLEAR     30  14  51 CALM      30.30S
HIGHFILL       PTCLDY    30  22  72 E3        30.30R
$$

ARZ004-005-016-061400-
NORTH CENTRAL ARKANSAS

CITY           SKY/WX    TMP DP  RH WIND       PRES   REMARKS
BATESVILLE     MOCLDY    34  21  60 CALM      30.37R
FLIPPIN        PTCLDY    27  19  74 CALM      30.32R
MTN HOME       MOCLDY    33  16  49 CALM      30.32R
$$

ARZ040-041-061400-
WEST CENTRAL ARKANSAS

CITY           SKY/WX    TMP DP  RH WIND       PRES   REMARKS
MENA           CLEAR     27  23  86 CALM      30.31S
MOUNT IDA      CLEAR     25  19  78 CALM      30.30S
$$

ARZ009-017-025-026-028-061400-
NORTHEAST ARKANSAS

CITY           SKY/WX    TMP DP  RH WIND       PRES   REMARKS
CORNING        FAIR      30  27  86 CALM      30.37R
JONESBORO      MOCLDY    30  26  85 CALM      30.37R
NEWPORT        PTCLDY    31  27  85 SE3       30.39R
WALNUT RIDGE   PTCLDY    28  25  86 CALM      30.36S
BLYTHEVILLE    CLEAR     34  26  72 S5        30.37S WCI  30
$$

ARZ022-023-033-042-044-061400-
CENTRAL ARKANSAS

CITY           SKY/WX    TMP DP  RH WIND       PRES   REMARKS
LITTLE ROCK    CLOUDY    31  26  82 CALM      30.37R
N LITTLE ROCK    N/A     37  22  53 SW3       30.37R
JACKSONVILLE   MOCLDY    25  22  88 CALM      30.35R
SEARCY         MOCLDY    27  26  96 CALM      30.39R
HOT SPRINGS    CLEAR     30  23  75 CALM      30.34R
RUSSELLVILLE   PTCLDY    25  22  88 CALM      30.34R
CLINTON        FAIR      23  19  86 CALM      30.38R
$$

ARZ036-061400-
EAST ARKANSAS

CITY           SKY/WX    TMP DP  RH WIND       PRES   REMARKS
WEST MEMPHIS   PTCLDY    32  30  92 CALM      30.37R
$$

ARZ050-053-066-070-073-061400-
SOUTHWEST ARKANSAS

CITY           SKY/WX    TMP DP  RH WIND       PRES   REMARKS
ARKADELPHIA    FAIR      29  28  96 CALM      30.36R
CAMDEN         PTCLDY    28  25  86 CALM      30.35R
TEXARKANA      CLOUDY    34  26  72 CALM      30.31R
EL DORADO      CLOUDY    33  26  75 CALM      30.35R
DE QUEEN       MOCLDY    34  26  72 E3        30.31R
$$

ARZ056-057-069-061400-
SOUTHEAST ARKANSAS

CITY           SKY/WX    TMP DP  RH WIND       PRES   REMARKS
PINE BLUFF     CLOUDY    32  27  81 CALM      30.36S
STUTTGART      CLEAR     36  27  69 CALM      30.37S
MONTICELLO     CLOUDY    34  27  75 CALM      30.36R

$$





USA.gov is the U.S. government's official web portal to all federal, state and local government web resources and services.